When you browse on this site, cookies collect data to enhance your experience and personalize the content and advertising you see.
Visit our Privacy Policy to learn more. By continuing to use the site, you agree to this use of cookies and data.
  • In Romania
  • List of Countries
  • For 7 days
  • Water Temperature
  • Satellite Maps
  • Weather Map
  • Weather Widgets
  • user-avatar
    Login

    Hourly Weather Dzhyakovo

    Today, 19 February, Tuesday

    Time Temperature Precipitation Wind Pressure Humidity
    00:00 +6°C° 0 mm 2 mps 758 mmHg 67%
    01:00 +6°C° 0 mm 2 mps 758 mmHg 69%
    02:00 +6°C° 0 mm 2 mps 757 mmHg 72%
    03:00 +5°C° 0 mm 2 mps 757 mmHg 74%
    04:00 +5°C° 0 mm 2 mps 757 mmHg 76%
    05:00 +6°C° 0 mm 1 mps 757 mmHg 77%
    06:00 +5°C° 0 mm 1 mps 757 mmHg 79%
    07:00 +5°C° 0 mm 1 mps 757 mmHg 81%
    08:00 +7°C° 0 mm 1 mps 757 mmHg 73%
    09:00 +9°C° 0 mm 1 mps 757 mmHg 65%
    10:00 +10°C° 0 mm 2 mps 757 mmHg 57%
    11:00 +12°C° 0 mm 2 mps 757 mmHg 51%
    12:00 +14°C° 0 mm 2 mps 756 mmHg 46%
    13:00 +15°C° 0 mm 2 mps 756 mmHg 41%
    14:00 +16°C° 0 mm 2 mps 756 mmHg 41%
    15:00 +16°C° 0 mm 1 mps 756 mmHg 41%
    16:00 +16°C° 0 mm 1 mps 756 mmHg 41%
    17:00 +14°C° 0 mm 1 mps 756 mmHg 46%
    18:00 +13°C° 0 mm 2 mps 756 mmHg 51%
    19:00 +10°C° 0 mm 2 mps 756 mmHg 56%
    20:00 +9°C° 0 mm 2 mps 756 mmHg 60%
    21:00 +9°C° 0 mm 2 mps 757 mmHg 64%
    22:00 +8°C° 0 mm 2 mps 757 mmHg 68%
    23:00 +7°C° 0 mm 2 mps 757 mmHg 70%

    Tomorrow, 20 February, Wednesday

    Time Temperature Precipitation Wind Pressure Humidity
    00:00 +7°C° 0 mm 2 mps 757 mmHg 71%
    01:00 +6°C° 0 mm 2 mps 758 mmHg 73%
    02:00 +6°C° 0 mm 2 mps 758 mmHg 72%
    03:00 +6°C° 0 mm 2 mps 758 mmHg 71%
    04:00 +6°C° 0 mm 2 mps 758 mmHg 70%
    05:00 +5°C° 0 mm 2 mps 758 mmHg 70%
    06:00 +5°C° 0 mm 2 mps 758 mmHg 70%
    07:00 +6°C° 0 mm 1 mps 759 mmHg 69%
    08:00 +7°C° 0 mm 2 mps 759 mmHg 63%
    09:00 +9°C° 0 mm 2 mps 759 mmHg 58%
    10:00 +12°C° 0 mm 2 mps 760 mmHg 52%
    11:00 +12°C° 0 mm 3 mps 760 mmHg 50%
    12:00 +13°C° 0 mm 3 mps 760 mmHg 47%
    13:00 +14°C° 0 mm 3 mps 760 mmHg 45%
    14:00 +14°C° 0 mm 3 mps 759 mmHg 45%
    15:00 +15°C° 0 mm 2 mps 759 mmHg 45%
    16:00 +14°C° 0 mm 2 mps 759 mmHg 46%
    17:00 +13°C° 0 mm 2 mps 760 mmHg 50%
    18:00 +12°C° 0 mm 2 mps 760 mmHg 54%
    19:00 +10°C° 0 mm 1 mps 760 mmHg 58%
    20:00 +10°C° 0 mm 1 mps 761 mmHg 59%
    21:00 +9°C° 0 mm 1 mps 761 mmHg 60%
    22:00 +9°C° 0 mm 1 mps 761 mmHg 61%
    23:00 +8°C° 0 mm 1 mps 761 mmHg 62%

    Day after tomorrow, 21 February, Thursday

    Time Temperature Precipitation Wind Pressure Humidity
    00:00 +7°C° 0 mm 0 mps 762 mmHg 64%
    01:00 +7°C° 0 mm 0 mps 762 mmHg 65%
    02:00 +7°C° 0 mm 1 mps 762 mmHg 67%
    03:00 +7°C° 0 mm 1 mps 762 mmHg 69%
    04:00 +7°C° 0 mm 1 mps 762 mmHg 70%
    05:00 +7°C° 0 mm 1 mps 762 mmHg 73%
    06:00 +6°C° 0 mm 1 mps 763 mmHg 75%
    07:00 +6°C° 0 mm 1 mps 763 mmHg 78%
    08:00 +8°C° 0 mm 1 mps 763 mmHg 70%
    09:00 +9°C° 0 mm 2 mps 763 mmHg 63%
    10:00 +10°C° 0 mm 2 mps 763 mmHg 56%
    11:00 +12°C° 0 mm 2 mps 763 mmHg 53%
    12:00 +13°C° 0 mm 2 mps 763 mmHg 50%
    13:00 +14°C° 0 mm 2 mps 762 mmHg 46%
    14:00 +14°C° 0 mm 2 mps 762 mmHg 47%
    15:00 +14°C° 0 mm 2 mps 762 mmHg 48%
    16:00 +14°C° 0 mm 2 mps 761 mmHg 49%
    17:00 +13°C° 0 mm 2 mps 761 mmHg 53%
    18:00 +12°C° 0 mm 2 mps 761 mmHg 57%
    19:00 +10°C° 0 mm 2 mps 761 mmHg 61%
    20:00 +10°C° 0.1 mm 2 mps 761 mmHg 65%
    21:00 +10°C° 0.1 mm 2 mps 762 mmHg 69%
    22:00 +10°C° 0.1 mm 3 mps 762 mmHg 73%
    23:00 +9°C° 0.1 mm 3 mps 762 mmHg 76%

    22 February, Friday

    Time Temperature Precipitation Wind Pressure Humidity
    00:00 +9°C° 0.1 mm 2 mps 761 mmHg 79%
    01:00 +8°C° 0.1 mm 2 mps 761 mmHg 82%
    02:00 +8°C° 0.1 mm 3 mps 761 mmHg 80%
    03:00 +7°C° 0.1 mm 4 mps 760 mmHg 78%
    04:00 +8°C° 0.1 mm 4 mps 760 mmHg 77%
    05:00 +7°C° 0.3 mm 5 mps 760 mmHg 78%
    06:00 +7°C° 0.3 mm 5 mps 760 mmHg 79%
    07:00 +7°C° 0.3 mm 6 mps 760 mmHg 80%
    08:00 +8°C° 0 mm 7 mps 760 mmHg 75%
    09:00 +9°C° 0 mm 8 mps 760 mmHg 69%
    10:00 +10°C° 0 mm 9 mps 760 mmHg 64%
    11:00 +10°C° 0.1 mm 9 mps 760 mmHg 64%
    12:00 +10°C° 0.1 mm 9 mps 760 mmHg 64%
    13:00 +10°C° 0.1 mm 9 mps 760 mmHg 64%
    14:00 +10°C° 0.1 mm 9 mps 760 mmHg 60%
    15:00 +10°C° 0.1 mm 9 mps 760 mmHg 56%
    16:00 +10°C° 0.1 mm 9 mps 760 mmHg 52%
    17:00 +7°C° 0.1 mm 8 mps 761 mmHg 52%
    18:00 +6°C° 0.1 mm 8 mps 762 mmHg 53%
    19:00 +4°C° 0.1 mm 8 mps 763 mmHg 53%
    20:00 +2°C° 0 mm 8 mps 764 mmHg 51%
    21:00 0°C° 0 mm 7 mps 765 mmHg 49%
    22:00 -2°C° 0 mm 7 mps 766 mmHg 47%
    23:00 -2°C° 0 mm 6 mps 766 mmHg 50%

    23 February, Saturday

    Time Temperature Precipitation Wind Pressure Humidity
    00:00 -2°C° 0 mm 5 mps 767 mmHg 52%
    01:00 -3°C° 0 mm 4 mps 767 mmHg 54%
    02:00 -3°C° 0 mm 4 mps 768 mmHg 54%
    03:00 -3°C° 0 mm 4 mps 768 mmHg 53%
    04:00 -4°C° 0 mm 4 mps 768 mmHg 53%
    05:00 -4°C° 0 mm 4 mps 768 mmHg 52%
    06:00 -4°C° 0 mm 3 mps 768 mmHg 51%
    07:00 -4°C° 0 mm 3 mps 769 mmHg 50%
    08:00 -3°C° 0 mm 4 mps 769 mmHg 45%
    09:00 -2°C° 0 mm 4 mps 769 mmHg 39%
    10:00 0°C° 0 mm 4 mps 769 mmHg 34%
    11:00 +1°C° 0 mm 4 mps 768 mmHg 31%
    12:00 +3°C° 0 mm 4 mps 768 mmHg 27%
    13:00 +3°C° 0 mm 5 mps 767 mmHg 24%
    14:00 +2°C° 0 mm 5 mps 767 mmHg 24%
    15:00 +2°C° 0 mm 5 mps 767 mmHg 25%
    16:00 +2°C° 0 mm 5 mps 766 mmHg 25%
    17:00 +1°C° 0 mm 4 mps 767 mmHg 30%
    18:00 +1°C° 0 mm 3 mps 767 mmHg 34%
    19:00 +1°C° 0 mm 2 mps 767 mmHg 39%
    20:00 -1°C° 0 mm 2 mps 767 mmHg 40%
    21:00 -1°C° 0 mm 2 mps 767 mmHg 42%
    22:00 -2°C° 0 mm 2 mps 767 mmHg 44%
    23:00 -2°C° 0 mm 2 mps 767 mmHg 43%

    24 February, Sunday

    Time Temperature Precipitation Wind Pressure Humidity
    00:00 -1°C° 0 mm 2 mps 767 mmHg 42%
    01:00 -1°C° 0 mm 2 mps 767 mmHg 41%
    02:00 -1°C° 0 mm 2 mps 767 mmHg 43%
    03:00 -2°C° 0 mm 2 mps 767 mmHg 44%
    04:00 -2°C° 0 mm 2 mps 767 mmHg 45%
    05:00 -2°C° 0 mm 3 mps 767 mmHg 46%
    06:00 -4°C° 0 mm 3 mps 767 mmHg 47%
    07:00 -4°C° 0 mm 3 mps 767 mmHg 47%
    08:00 -3°C° 0 mm 4 mps 767 mmHg 42%
    09:00 -2°C° 0 mm 5 mps 768 mmHg 37%
    10:00 -1°C° 0 mm 5 mps 768 mmHg 32%
    11:00 -1°C° 0 mm 6 mps 768 mmHg 30%
    12:00 +1°C° 0 mm 6 mps 767 mmHg 28%
    13:00 +2°C° 0 mm 6 mps 767 mmHg 27%
    14:00 +2°C° 0 mm 6 mps 767 mmHg 27%
    15:00 +2°C° 0 mm 6 mps 767 mmHg 27%
    16:00 +2°C° 0 mm 6 mps 767 mmHg 27%
    17:00 +1°C° 0 mm 5 mps 767 mmHg 31%
    18:00 -1°C° 0 mm 4 mps 767 mmHg 35%
    19:00 -1°C° 0 mm 3 mps 768 mmHg 39%
    20:00 -1°C° 0 mm 3 mps 768 mmHg 39%
    21:00 -2°C° 0 mm 3 mps 768 mmHg 40%
    22:00 -2°C° 0 mm 3 mps 768 mmHg 41%
    23:00 -2°C° 0 mm 3 mps 768 mmHg 42%
    Show more